Temp
15 15 15 15 14 14 14 14 13 12 12 11 10 10 10 10 10 9 9 9 9 9 9 9 9 9 9 9 9 9 9 9 9 9 8 8 9 9 9 10 10 11
15 15 15 15 14 14 14 14 13 13 12 12 11 10 10 10 10 9 9 9 9 9 9 8 9 9 9 9 8 8 9 8 9 9 8 8 9 8 9 9 10 10
15 15 15 15 14 14 14 14 14 13 13 12 12 11 10 10 10 9 9 9 9 9 8 8 8 8 8 8 8 8 9 9 9 9 8 8 8 8 8 9 9 9
15 15 14 14 14 14 14 14 13 13 13 12 12 11 11 10 10 9 9 9 9 9 8 8 8 8 8 8 8 9 9 10 10 9 8 9 9 9 9 9 9 9
14 14 14 14 14 13 14 13 13 13 13 12 12 11 11 10 9 9 9 9 9 9 8 8 8 8 8 8 9 9 9 9 10 10 9 9 10 10 9 9 9 9
14 14 13 13 13 13 13 12 12 12 12 12 12 11 11 10 9 9 9 9 9 9 8 8 8 8 8 8 9 9 9 9 10 10 9 9 9 10 10 9 9 9
13 13 13 12 12 12 12 12 12 12 12 12 12 11 11 10 9 9 9 9 9 8 8 8 8 8 9 9 8 9 9 9 10 10 9 9 9 9 10 10 9 9
13 12 12 12 12 12 12 12 12 13 12 12 11 11 11 10 9 9 9 9 9 8 8 8 8 8 9 9 9 9 10 10 10 10 10 10 10 9 10 10 9 9
12 12 12 12 12 12 13 13 13 13 12 11 11 11 11 10 9 9 9 9 8 8 8 8 8 8 9 9 9 10 10 10 10 10 10 10 10 9 9 9 9 9
13 13 13 13 13 13 13 13 12 12 12 11 11 11 11 11 10 9 8 8 8 8 8 8 8 8 9 9 10 10 10 10 10 10 10 10 10 10 10 9 9 8
14 14 13 13 13 13 12 12 12 12 12 11 10 11 11 11 11 10 8 8 8 8 8 8 8 8 8 9 10 10 10 10 10 10 10 10 10 10 10 10 9 9
14 14 14 13 13 13 12 12 12 12 12 11 10 11 11 11 11 10 9 9 9 9 8 8 8 8 8 9 10 10 10 10 10 10 10 10 10 10 10 10 9 9
15 14 14 13 13 13 12 12 12 12 11 11 10 11 11 11 11 10 9 9 9 9 8 8 8 8 9 9 10 10 10 10 10 10 10 10 10 10 10 9 9 9
15 15 14 13 12 12 12 12 12 11 11 10 11 11 11 11 10 10 10 9 9 9 8 9 9 9 9 9 9 10 10 10 10 10 9 10 9 9 9 9 9 9
14 14 14 13 12 12 12 12 11 11 11 10 11 11 11 11 10 10 10 9 9 9 9 9 10 9 9 9 9 9 9 9 9 9 9 9 9 9 9 9 9 9
13 13 13 13 12 12 12 12 12 11 11 11 11 11 11 11 11 11 10 10 9 9 9 10 10 10 10 10 9 9 9 9 9 9 9 9 9 9 9 9 9 8
13 13 13 12 13 13 13 13 12 11 11 11 11 11 11 11 11 11 11 10 9 9 10 10 10 10 10 10 9 9 9 9 9 9 9 9 9 8 8 8 8 8
13 13 13 12 13 13 12 12 12 11 11 11 12 12 11 11 11 11 11 10 10 10 10 10 10 10 10 10 9 9 9 9 9 9 9 9 8 8 8 8 8 8
12 12 12 12 13 13 12 12 11 10 11 11 12 12 12 11 11 11 11 11 11 10 10 10 10 10 10 10 10 9 9 9 9 9 9 9 8 8 8 8 7 7
13 13 12 12 12 12 12 11 11 11 11 11 11 12 12 12 11 11 11 11 11 11 10 10 10 10 10 10 10 9 9 9 8 9 9 9 8 8 8 8 7 7
13 13 12 12 12 12 12 12 11 11 11 11 11 11 12 12 12 11 11 11 11 11 10 10 11 10 10 10 10 10 9 9 8 8 9 9 8 8 8 7 7 7
12 12 12 11 11 11 12 12 12 11 11 11 11 11 11 11 11 11 11 11 11 11 11 11 11 11 10 10 10 10 9 9 9 8 8 8 8 8 8 7 7 7
12 12 12 11 11 11 11 11 11 11 11 11 11 11 11 11 11 11 11 11 11 11 11 11 11 11 10 10 10 10 9 9 9 8 8 8 8 8 8 7 7 7
12 12 12 12 11 11 12 11 11 11 10 10 11 11 11 11 11 11 11 11 11 11 11 11 11 11 11 10 10 10 9 9 9 8 7 8 8 8 8 7 7 7
12 12 12 12 11 12 13 12 11 10 10 10 10 11 11 11 11 11 11 10 10 10 10 10 10 10 10 10 10 10 9 9 9 8 7 8 7 8 8 8 7 7
13 13 13 12 11 11 12 12 11 11 11 11 10 11 11 11 11 11 11 10 10 10 10 10 10 10 10 10 10 10 10 9 9 8 8 8 7 7 7 8 8 7
Height
1567 1567 1568 1568 1568 1568 1567 1567 1567 1566 1565 1565 1564 1563 1562 1560 1560 1560 1560 1559 1559 1559 1558 1558 1558 1558 1558 1557 1557 1556 1556 1555 1553 1553 1553 1553 1553 1552 1551 1551 1551 1550
1566 1566 1567 1567 1567 1567 1567 1567 1566 1566 1565 1564 1563 1562 1561 1560 1560 1560 1560 1559 1559 1558 1558 1558 1558 1557 1557 1557 1556 1556 1555 1555 1553 1552 1553 1552 1553 1553 1552 1551 1551 1550
1565 1565 1566 1566 1566 1566 1566 1566 1566 1565 1565 1564 1563 1562 1561 1560 1559 1560 1560 1559 1559 1558 1558 1558 1557 1557 1557 1556 1555 1554 1554 1553 1552 1552 1552 1552 1552 1552 1552 1552 1551 1550
1564 1564 1565 1565 1566 1566 1566 1566 1565 1565 1564 1564 1562 1561 1561 1560 1560 1560 1559 1559 1559 1558 1558 1557 1557 1556 1556 1555 1554 1553 1553 1552 1552 1551 1551 1551 1551 1551 1551 1551 1551 1550
1563 1564 1564 1565 1565 1565 1565 1565 1565 1565 1564 1563 1562 1561 1561 1560 1560 1560 1560 1559 1559 1558 1558 1557 1556 1555 1554 1553 1553 1552 1552 1552 1551 1551 1551 1551 1550 1550 1550 1550 1550 1550
1562 1563 1563 1564 1564 1565 1565 1565 1565 1564 1564 1563 1562 1561 1560 1560 1560 1560 1560 1559 1559 1558 1558 1556 1555 1554 1554 1553 1552 1552 1552 1551 1551 1551 1551 1550 1550 1550 1550 1550 1550 1549
1560 1562 1562 1563 1563 1564 1564 1564 1564 1564 1563 1563 1562 1561 1560 1559 1559 1559 1560 1559 1559 1558 1557 1556 1555 1554 1553 1552 1552 1551 1551 1551 1550 1550 1550 1550 1550 1550 1549 1549 1549 1549
1559 1560 1561 1561 1561 1561 1562 1562 1562 1563 1563 1562 1561 1560 1559 1559 1559 1559 1559 1559 1558 1558 1557 1556 1555 1554 1552 1552 1552 1551 1551 1550 1550 1550 1549 1549 1549 1549 1549 1549 1549 1549
1557 1557 1557 1558 1558 1559 1560 1560 1560 1561 1561 1561 1560 1559 1558 1558 1558 1558 1558 1558 1557 1557 1556 1555 1554 1553 1552 1551 1551 1551 1550 1550 1549 1549 1549 1549 1549 1549 1549 1548 1548 1548
1553 1552 1553 1555 1555 1556 1557 1557 1558 1558 1559 1559 1559 1558 1557 1556 1556 1556 1556 1556 1556 1556 1555 1555 1554 1553 1552 1551 1551 1550 1550 1549 1549 1549 1548 1548 1548 1548 1548 1548 1548 1548
1549 1549 1552 1553 1553 1554 1554 1555 1556 1556 1557 1557 1557 1557 1556 1555 1555 1555 1555 1555 1555 1555 1555 1554 1553 1552 1551 1551 1550 1550 1549 1549 1549 1548 1548 1548 1548 1548 1547 1547 1547 1547
1546 1547 1550 1551 1551 1552 1552 1553 1554 1555 1555 1555 1556 1555 1555 1554 1554 1553 1554 1554 1554 1554 1554 1553 1553 1552 1551 1550 1550 1549 1549 1549 1548 1548 1548 1548 1547 1547 1547 1547 1547 1547
1543 1545 1547 1548 1549 1550 1550 1551 1552 1553 1554 1554 1554 1554 1553 1553 1553 1552 1552 1553 1553 1553 1553 1552 1551 1551 1550 1549 1549 1549 1549 1549 1548 1548 1548 1547 1547 1547 1547 1547 1546 1546
1541 1543 1544 1546 1547 1548 1550 1550 1551 1552 1552 1552 1552 1552 1552 1552 1552 1551 1551 1551 1552 1552 1551 1551 1550 1549 1549 1549 1549 1549 1548 1548 1548 1548 1547 1547 1547 1546 1546 1546 1546 1546
1539 1540 1541 1543 1545 1546 1547 1548 1549 1550 1551 1551 1551 1551 1551 1551 1551 1550 1550 1550 1550 1550 1550 1549 1549 1548 1548 1548 1548 1548 1548 1548 1548 1547 1547 1547 1547 1546 1546 1546 1545 1545
1537 1538 1539 1540 1542 1543 1543 1544 1545 1547 1548 1549 1549 1549 1549 1549 1549 1549 1549 1549 1549 1548 1548 1548 1548 1547 1547 1547 1547 1547 1547 1547 1547 1547 1547 1546 1546 1546 1546 1545 1545 1545
1536 1536 1537 1537 1538 1539 1540 1541 1542 1544 1545 1546 1547 1547 1547 1547 1548 1548 1547 1547 1547 1547 1547 1547 1546 1546 1546 1546 1546 1546 1547 1547 1546 1546 1546 1546 1546 1546 1545 1545 1545 1545
1534 1535 1535 1535 1536 1537 1538 1538 1540 1541 1542 1543 1544 1544 1544 1545 1546 1546 1546 1546 1546 1546 1546 1546 1545 1545 1545 1545 1546 1546 1546 1546 1546 1546 1546 1546 1546 1545 1545 1545 1545 1545
1534 1535 1535 1534 1534 1534 1535 1536 1537 1539 1540 1540 1541 1541 1542 1543 1543 1543 1544 1544 1544 1544 1544 1544 1544 1544 1544 1545 1545 1545 1545 1545 1546 1546 1546 1545 1545 1545 1545 1545 1545 1544
1532 1533 1533 1533 1532 1532 1533 1534 1535 1536 1537 1537 1538 1538 1539 1540 1541 1541 1541 1541 1542 1542 1542 1543 1543 1543 1543 1543 1544 1544 1544 1545 1545 1545 1545 1545 1545 1545 1545 1544 1544 1544
1529 1529 1530 1530 1530 1530 1530 1531 1532 1533 1534 1535 1535 1536 1537 1538 1539 1539 1539 1539 1540 1540 1540 1541 1541 1541 1542 1542 1542 1543 1543 1544 1544 1544 1545 1545 1544 1544 1544 1544 1544 1544
1528 1527 1527 1527 1527 1527 1528 1528 1529 1529 1530 1531 1532 1533 1534 1535 1536 1537 1537 1538 1538 1538 1538 1538 1539 1539 1540 1540 1541 1542 1542 1542 1543 1543 1544 1544 1544 1544 1544 1544 1544 1544
1527 1527 1527 1526 1526 1527 1527 1527 1527 1527 1527 1528 1529 1530 1531 1532 1533 1534 1535 1535 1535 1536 1536 1536 1536 1537 1538 1539 1539 1540 1541 1541 1542 1542 1543 1543 1543 1544 1544 1543 1543 1543
1525 1525 1525 1525 1525 1526 1526 1525 1526 1526 1526 1527 1527 1528 1529 1530 1531 1531 1532 1533 1533 1533 1534 1534 1534 1535 1536 1536 1537 1538 1539 1540 1541 1541 1541 1542 1542 1543 1543 1543 1543 1543
1524 1523 1523 1523 1523 1524 1523 1523 1523 1525 1526 1527 1527 1526 1526 1527 1528 1528 1529 1530 1530 1531 1532 1532 1532 1532 1533 1534 1535 1536 1537 1538 1539 1540 1540 1541 1541 1542 1542 1542 1542 1543
1524 1523 1522 1522 1522 1521 1521 1521 1521 1522 1523 1523 1524 1523 1523 1524 1524 1525 1526 1527 1527 1528 1529 1530 1530 1530 1530 1531 1532 1533 1535 1536 1537 1538 1539 1539 1540 1541 1541 1541 1542 1542
Wind_Speed
8 7 5 4 3 4 4 2 2 3 2 2 2 2 4 5 4 2 1 1 1 1 0 1 0 1 1 2 3 2 2 3 4 4 3 3 2 2 2 2 2 2
9 8 7 5 5 5 4 3 3 3 3 3 2 3 4 5 3 1 1 1 1 0 1 1 1 1 1 2 3 2 1 2 3 2 3 3 2 2 1 2 2 2
10 9 8 7 6 5 5 4 3 3 3 3 3 3 4 4 2 1 1 1 1 0 1 1 1 1 1 2 2 2 1 1 1 1 2 2 2 2 2 2 1 1
10 9 8 8 8 6 5 5 4 4 3 3 4 4 4 4 1 1 2 1 1 0 1 0 0 0 2 2 2 2 1 1 2 1 2 1 2 3 3 3 2 2
10 9 8 8 8 7 5 5 4 4 4 4 4 3 4 3 1 2 2 2 2 1 1 1 1 1 2 3 2 1 0 1 2 2 2 1 1 2 3 4 3 3
10 9 8 8 9 8 6 5 5 5 6 5 4 3 3 2 1 3 3 3 3 2 2 2 1 2 2 2 2 1 2 2 3 2 1 1 0 1 2 4 4 3
11 9 8 8 9 8 7 6 5 6 8 7 5 3 2 1 2 4 5 4 4 3 3 2 1 2 2 2 2 1 2 3 3 3 2 1 0 0 1 2 3 3
11 9 9 8 8 9 9 6 5 8 11 9 6 4 2 1 4 6 6 6 5 4 4 2 1 1 1 1 1 1 1 2 3 3 3 2 2 1 1 1 2 3
12 13 13 12 11 11 11 10 9 12 13 10 8 5 2 2 5 7 7 7 7 5 4 3 2 2 1 1 0 1 1 2 3 3 3 3 2 2 1 1 2 2
17 20 18 16 16 15 15 15 13 14 14 12 9 7 4 3 5 6 8 8 7 6 5 4 3 2 1 1 0 1 1 2 2 2 3 3 3 3 3 3 3 2
21 23 18 17 18 17 17 16 15 15 15 13 11 8 5 4 4 6 9 8 7 7 6 5 4 2 1 1 0 1 2 2 3 3 3 4 4 4 4 4 4 4
22 22 19 17 16 15 15 16 15 16 16 15 13 9 6 4 5 6 8 8 7 7 7 6 5 3 1 0 1 2 2 3 3 3 4 5 5 5 5 5 5 5
20 20 17 17 16 14 13 14 15 17 17 16 14 10 7 5 5 7 8 9 9 9 8 7 6 4 2 1 2 2 3 3 3 3 3 4 5 5 5 5 5 5
20 17 15 16 16 14 13 14 16 18 18 17 15 12 8 6 7 8 8 10 11 10 9 8 6 5 3 3 3 3 3 3 3 3 3 4 4 4 4 4 4 4
18 15 13 15 16 15 15 16 17 18 18 18 16 13 10 7 8 8 8 10 11 11 10 8 6 5 5 5 4 4 3 3 4 4 4 4 4 4 4 4 4 4
13 12 12 15 17 17 16 17 18 19 19 19 17 15 12 9 8 8 9 10 10 10 9 8 6 6 6 6 5 4 4 3 3 4 5 4 4 4 4 3 4 4
10 11 12 15 18 18 17 17 18 20 20 19 18 17 14 11 8 8 9 10 11 11 9 8 7 7 7 7 6 5 4 3 3 4 5 5 5 4 4 4 4 5
9 10 12 14 16 17 17 16 17 20 22 20 19 18 16 13 10 8 8 10 11 11 10 9 8 7 7 7 7 5 4 3 3 4 5 5 6 5 5 4 4 5
8 10 11 13 15 16 17 17 19 22 22 20 20 19 17 15 12 10 9 10 11 12 11 10 9 8 8 8 7 6 4 4 4 4 5 5 6 6 5 5 5 5
8 10 12 13 15 16 17 18 21 23 22 20 20 20 18 16 15 13 10 10 11 12 12 11 10 9 8 9 8 7 5 5 4 5 5 5 6 6 6 6 6 5
9 11 12 14 15 16 18 19 20 22 22 21 20 19 18 17 16 14 12 10 11 12 13 13 11 10 9 9 9 8 6 6 5 5 5 6 6 6 5 5 5 5
9 10 12 13 14 15 17 19 21 22 22 21 21 19 18 18 18 16 14 13 12 12 14 14 13 11 11 10 10 9 8 7 6 6 6 6 6 6 5 5 5 5
10 10 12 12 12 12 13 16 19 22 23 23 22 20 19 18 18 18 17 15 14 13 14 15 15 13 12 11 11 10 9 9 8 7 7 7 7 6 5 5 5 5
14 12 12 12 11 11 13 16 18 20 22 22 21 19 18 18 18 18 19 18 17 16 14 15 16 15 13 13 12 11 11 10 9 9 9 8 8 7 6 6 5 5
20 18 15 12 10 10 13 17 19 19 18 18 19 21 20 19 20 21 21 21 20 18 16 16 17 17 16 15 13 13 13 12 11 11 11 10 9 8 7 7 6 6
23 23 22 18 12 11 12 14 16 19 19 17 18 22 22 22 23 23 23 23 22 21 19 17 18 19 18 17 15 14 14 14 13 13 13 11 11 9 8 8 7 7
Wind_Direction
252 257 270 297 314 314 318 326 326 327 347 1 349 346 339 343 7 53 117 128 131 190 185 132 206 273 336 334 339 345 335 340 349 3 36 49 40 38 85 116 131 110
254 253 257 266 280 302 310 301 301 314 338 358 350 345 345 351 19 86 118 116 146 140 92 98 44 14 5 333 330 329 317 332 347 17 52 63 67 56 69 93 106 93
259 255 255 256 261 278 293 290 289 301 321 342 352 2 355 354 22 146 187 169 188 74 91 92 50 43 353 324 325 318 293 300 315 60 70 75 92 92 96 77 49 60
261 256 251 253 254 260 276 279 279 292 311 331 348 6 1 353 11 188 217 202 199 188 112 53 68 60 325 323 321 311 288 264 232 145 100 115 124 114 117 107 101 116
259 257 252 251 250 251 261 267 265 283 303 314 331 355 2 350 318 206 224 216 212 225 231 273 274 306 330 326 310 292 226 232 218 173 121 123 129 122 122 108 104 116
255 256 255 254 253 251 254 250 244 270 292 297 308 332 351 338 244 210 220 222 217 222 234 250 284 321 341 336 315 269 194 204 212 196 158 106 68 102 117 106 104 109
253 254 255 258 256 251 249 245 246 272 281 280 283 297 323 311 231 210 213 221 220 218 227 232 280 318 342 359 324 269 211 205 208 210 214 214 250 340 118 115 114 115
249 248 244 247 247 244 243 242 252 264 265 263 265 272 290 256 228 215 208 214 218 216 219 213 220 288 344 24 299 271 233 218 216 216 221 226 232 262 267 155 126 130
240 242 242 244 245 237 232 233 245 253 252 250 253 259 258 231 227 218 206 207 211 211 212 205 207 257 337 34 291 263 225 216 214 211 210 209 209 211 211 155 125 130
242 246 247 249 253 247 237 237 243 247 246 241 240 245 242 231 229 215 205 203 203 205 210 206 208 258 334 12 228 178 176 183 181 181 178 172 175 177 167 149 139 135
247 251 249 251 257 254 247 241 236 239 242 236 232 238 237 230 229 212 202 202 200 198 204 205 206 238 322 354 160 151 153 156 148 146 149 149 151 151 146 142 137 135
248 251 249 251 256 254 249 242 232 234 239 232 228 235 235 228 231 216 200 198 200 196 198 204 205 216 260 293 143 151 158 154 147 146 151 151 148 144 141 140 137 133
250 253 248 247 249 248 246 242 235 232 233 230 229 233 233 225 226 221 202 194 200 198 196 205 210 214 230 212 173 170 169 169 164 159 161 162 153 147 146 143 140 139
254 258 249 240 242 245 244 239 236 233 229 229 231 232 231 223 222 225 209 195 199 201 199 209 217 214 216 207 191 186 178 183 186 173 168 165 153 151 155 152 149 148
253 254 243 231 230 236 236 230 230 232 229 228 232 234 229 221 221 225 216 202 202 203 203 214 223 217 214 207 197 194 184 186 195 188 177 164 155 157 157 158 161 154
240 235 230 223 218 220 225 224 223 228 230 229 231 234 229 223 225 227 218 209 206 207 211 219 225 222 218 209 200 195 189 193 203 196 184 170 162 161 157 157 160 150
235 230 225 221 216 215 219 221 219 222 228 230 231 233 230 226 228 228 222 211 208 213 218 221 226 225 217 208 203 198 188 194 207 203 192 181 169 160 154 152 148 143
245 241 230 223 222 221 220 219 216 219 226 229 230 233 233 231 229 228 225 216 210 215 220 221 224 223 215 207 203 198 191 195 209 209 199 190 179 166 157 152 147 142
258 262 249 235 231 227 223 220 219 222 227 230 232 235 236 235 233 229 228 222 214 215 218 221 223 220 215 210 204 200 192 188 205 214 207 198 190 179 168 162 156 148
262 267 258 247 241 233 226 224 224 226 229 231 235 238 238 238 237 232 229 228 221 216 216 221 224 220 215 210 207 206 197 187 202 216 214 209 201 191 182 173 165 160
265 255 243 240 241 235 230 228 227 229 233 234 237 240 240 241 243 239 234 231 227 220 217 222 225 220 216 213 209 209 203 193 200 215 220 222 217 208 196 183 176 173
286 266 251 245 243 238 235 234 232 232 234 235 238 241 241 241 242 242 239 237 234 228 221 223 226 221 216 214 210 209 207 200 200 210 223 229 229 224 213 199 190 186
310 290 279 271 261 251 248 248 246 242 237 235 235 238 240 241 241 242 242 241 239 235 227 224 225 223 217 214 211 208 207 205 201 202 217 230 235 234 227 214 201 194
333 317 299 287 280 276 266 259 257 251 243 240 240 241 243 244 244 244 243 242 241 238 232 228 225 223 219 214 212 207 205 206 202 201 212 225 233 237 237 228 213 201
349 343 329 306 288 284 273 263 261 262 260 256 249 245 246 245 244 245 243 241 241 239 235 232 228 224 220 216 212 208 206 206 203 203 211 218 222 231 238 235 227 215
346 346 343 335 316 294 278 267 265 266 267 262 249 244 245 243 241 245 246 243 242 240 236 233 231 226 221 217 214 209 207 207 203 205 212 214 213 220 229 234 236 228